STARLINK-35287

Last updated on Mon Oct 20 2025 00:02:06 GMT+0000 (Coordinated Universal Time)

1 65754U 25216W 25292.23248906 .00146479 00000+0 25887-2 0 9999 2 65754 53.1584 272.2272 0001635 93.0090 267.1106 15.49352041 4815
UTC large
Height (km)
Speed (km/s)
/
Latitude / Longitude
Inclination (degrees)
Orbital Period (minutes)
Azimuth
Elevation
Range (km)
Doppler Factor

Next 0 passes for location: London (51.5072 / 0.1276)

Sorry there are no passes over London.